Tracking 34171 objects as of 21-May-2026
HD Live streaming from Space Station
objects crossing your sky now

STARLINK-37255

Track STARLINK-37255 now!
10-day predictions
STARLINK-37255 is classified as:


NORAD ID: 68554
Int'l Code: 2026-070N
Perigee: 444.6 km
Apogee: 446.5 km
Inclination: 53.2 °
Period: 93.3 minutes
Semi major axis: 6816 km
RCS: Unknown
Launch date: April 2, 2026
Source: United States (US)
Launch site: AIR FORCE EASTERN TEST RANGE (AFETR)
Your satellite tracking list
Your tracking list is empty




NASA's NSSDC Master Catalog

Two Line Element Set (TLE):
1 68554U 26070N   26140.91668981 -.02210012  00000-0 -55700-1 0  9992
2 68554  53.1596  26.7506 0001390  80.8541  74.6374 15.42614469  6025
Source of the keplerian elements: AFSPC